Regional Weather Roundup
Issued by NWS

Home | Current Version | Previous Version | Graphics & Text | Print | Product List | Glossary On
Versions: 1 2 3 4 5 6 7 8 9 10 11 12 13 14 15 16 17 18 19 20 21 22 23 24 25 26 27 28 29 30 31 32 33 34 35 36 37 38 39 40 41 42 43 44 45 46 47 48 49 50
844
ASUS43 KOAX 121210
RWRNE

WEATHER ROUNDUP FOR NEBRASKA
NATIONAL WEATHER SERVICE OMAHA NE
600 AM CST FRI FEB 12 2016

NOTES: SATELLITE DATA IS BEING USED TO AUGMENT CLOUD COVER ABOVE
       12000 FEET.
       "FAIR" INDICATES FEW OR NO CLOUDS BELOW 12,000 FEET WITH NO
       SIGNIFICANT WEATHER AND/OR OBSTRUCTIONS TO VISIBILITY.

  * THESE STATIONS DO NOT REPORT WEATHER SUCH AS RAIN...SNOW OR FOG.

NEZ001>004-019>022-054>056-121300-
NEBRASKA PANHANDLE

CITY           SKY/WX    TMP DP  RH WIND       PRES   REMARKS
SCOTTSBLUFF    CLOUDY    30  26  85 N7        30.27S WCI  23
6HR MIN TEMP:  29; 6HR MAX TEMP:  34;

ALLIANCE       CLEAR     25  22  88 CALM      30.25R
6HR MIN TEMP:  22; 6HR MAX TEMP:  31;

CHADRON        CLOUDY    26  24  92 CALM      30.31R
6HR MIN TEMP:  20; 6HR MAX TEMP:  30;

KIMBALL        CLOUDY    33  28  79 W6        30.28R WCI  28
SIDNEY         CLOUDY    28  25  88 SW5       30.27S WCI  23
6HR MIN TEMP:  28; 6HR MAX TEMP:  33;

$$

NEZ057>060-069>072-079>082-121300-
SOUTHWEST NEBRASKA

CITY           SKY/WX    TMP DP  RH WIND       PRES   REMARKS
NORTH PLATTE   CLOUDY    25  22  88 VRB5      30.30R WCI  19
6HR MIN TEMP:  22; 6HR MAX TEMP:  34;

IMPERIAL       CLEAR     29  24  82 W3        30.29R
6HR MIN TEMP:  27; 6HR MAX TEMP:  37;

LEXINGTON      CLOUDY    32  28  86 NW8       30.31R WCI  25
MCCOOK         CLEAR     26  24  92 NW6       30.31R WCI  19
6HR MIN TEMP:  26; 6HR MAX TEMP:  37;

OGALLALA       CLOUDY    28  25  89 CALM      30.29R
$$

NEZ005>010-023>029-035>040-094-121300-
NORTH CENTRAL NEBRASKA

CITY           SKY/WX    TMP DP  RH WIND       PRES   REMARKS
VALENTINE      CLOUDY    29  26  89 N12       30.32R WCI  19
6HR MIN TEMP:  29; 6HR MAX TEMP:  31;

AINSWORTH      CLOUDY    29  28  96 N10       30.31R FOG     WCI  19
BROKEN BOW     CLOUDY    31  27  85 N10       30.30R WCI  22
6HR MIN TEMP:  31; 6HR MAX TEMP:  32;

O`NEILL        CLOUDY    27  24  91 N6        30.33R WCI  20
ORD            PTCLDY    22  20  92 NW6       30.32R WCI  14
6HR MIN TEMP:  22; 6HR MAX TEMP:  29;

THEDFORD       CLOUDY    33  31  89 NW12      30.31R WCI  25
$$

NEZ041-046>049-061>064-073>077-083>087-121300-
SOUTH CENTRAL NEBRASKA

CITY           SKY/WX    TMP DP  RH WIND       PRES   REMARKS
GRAND ISLAND   CLOUDY    28  23  81 N14       30.33R WCI  17
6HR MIN TEMP:  27; 6HR MAX TEMP:  31;

AURORA         CLOUDY    27  25  91 N12       30.34R WCI  17
HASTINGS       CLOUDY    28  23  81 N14       30.32R WCI  17
6HR MIN TEMP:  27; 6HR MAX TEMP:  32;

HEBRON         CLOUDY    28  25  87 N8        30.35R WCI  20
HOLDREGE       CLOUDY    32  29  90 N6        30.31R WCI  26
KEARNEY *      CLOUDY    30  27  86 N9        30.32R WCI  22
YORK           CLOUDY    27  25  93 N14G20    30.33R WCI  15
$$

NEZ011>018-030>034-042>045-121300-
NORTHEAST NEBRASKA

CITY           SKY/WX    TMP DP  RH WIND       PRES   REMARKS
NORFOLK        CLOUDY    24  19  81 NW13      30.34R WCI  12
6HR MIN TEMP:  23; 6HR MAX TEMP:  27;

ALBION         CLOUDY    26  22  85 N8        30.34R WCI  17
BLAIR          CLOUDY    20  17  87 N14       30.32R WCI   7
COLUMBUS *     CLOUDY    25  14  63 NW10      30.36R WCI  15
FREMONT        CLOUDY    21  17  82 N7        30.35R WCI  13
TEKAMAH        CLOUDY    20  16  84 NW10      30.37R WCI   9
6HR MIN TEMP:  13; 6HR MAX TEMP:  21;

WAYNE          CLOUDY    21  18  88 N14       30.36R WCI   8
$$

NEZ050>053-065>068-078-088>093-121300-
SOUTHEAST NEBRASKA

CITY           SKY/WX    TMP DP  RH WIND       PRES   REMARKS
LINCOLN        CLOUDY    26  21  81 N16       30.37R WCI  14
6HR MIN TEMP:  27; 6HR MAX TEMP:  30;

OMAHA EPPLEY   CLOUDY    20  17  88 N15       30.35R WCI   6
6HR MIN TEMP:  20; 6HR MAX TEMP:  24;

BEATRICE       CLOUDY    28  24  87 N15G22    30.33R WCI  16
FALLS CITY     CLOUDY    30  24  78 N10       30.31R WCI  21
6HR MIN TEMP:  28; 6HR MAX TEMP:  31;

NEBRASKA CITY  CLOUDY    26  22  84 N16       30.32R WCI  14
PLATTSMOUTH    MOCLDY    23  19  83 N9G17     30.32R WCI  13
$$

NEZ044-045-051>053-067-121300-
OMAHA AREA

CITY           SKY/WX    TMP DP  RH WIND       PRES   REMARKS
OMAHA EPPLEY   CLOUDY    20  17  88 N15       30.35R WCI   6
6HR MIN TEMP:  20; 6HR MAX TEMP:  24;

BLAIR          CLOUDY    20  17  87 N14       30.32R WCI   7
FREMONT        CLOUDY    21  17  82 N7        30.35R WCI  13
MILLARD        CLOUDY    23  17  80 CALM      30.35R
OFFUTT AFB     MOCLDY    22  17  82 N10G20    30.34R WCI  11
PLATTSMOUTH    MOCLDY    23  19  83 N9G17     30.32R WCI  13
WAHOO          CLOUDY    23  19  87 N9        30.36R WCI  13
$$




USA.gov is the U.S. government's official web portal to all federal, state and local government web resources and services.